Location: Ailingen
(47.6833°N, 9.5000°E)
Time: 06:20:06
(UTC+00:00)

YAOGAN 1 - Pass Details

Date: 18 November 2025
Orbit: 605 x 607 km, 97.8° (Epoch: 04 December)

Event Time Altitude Azimuth Distance (km) Brightness Sun altitude
Rises 18:17:25 0° 184° (S) 2,852 6.0 -25.9°
Reaches altitude 10° 18:19:41 10° 192° (SSW) 1,953 5.2 -26.3°
Maximum altitude 18:23:41 40° 262° (W) 905 3.8 -27.0°
Drops below altitude 10° 18:27:43 10° 333° (NNW) 1,967 5.4 -27.6°
Sets 18:30:01 0° 341° (NNW) 2,875 6.2 -28.0°
